Powrót do katalogu

STARLINK-5754

AktywnyŁącznośćVLEO
NORAD 55579·PAYLOAD·🇺🇸 United States

Wystrzelony Feb 12, 2023 z Cape Canaveral Space Force Station

Loading…

Następne Przeloty (najbliższe 24 godziny)

TLE

ŚwieżeSource: CelesTrak SupGP

Epoka: Sep 14, 2026, 21:24 UTC

1 55579C 23020L   26257.89215278  .00012284  00000+0  44490-3 0  2579
2 55579  43.0043  16.6496 0001755 278.8068 284.5365 15.27574072    10

Śledź STARLINK-5754 w czasie rzeczywistym z AllMySat

Download on the App Store